Flag for Honduras Weather past 2 weeks in Choloma, Honduras

Now
79 °F

Partly cloudy.


Feels Like: 83 °F
Forecast: 73 / 84 °F
Wind: 6 mph from North

Location: La Mesa San Pedro Sula

Current Time: Jul 28, 2014 at 7:21:28 PM

Latest Report: Jul 28, 2014 at 7:00 PM


Visibility: N/A

Pressure: 29.98 "Hg

Humidity: 94%

Dew point: 77 °F

Location of CholomaLocation

Historic Weather in Choloma — Graph

°F

Choloma temperature yesterday

Maximum temperature yesterday: 93 °F (at 11:00 AM)
Minimum temperature yesterday: 73 °F (at 10:00 PM)
Average temperature yesterday: 81 °F

Past Weeks' High & Low Weather Summary

 TemperatureHumidityPressure
High99 °F (Jul 19, 2:00 PM)100% (Jul 13, 7:00 PM)32.22 "Hg (Jul 13, 7:00 PM)
Low73 °F (Jul 14, 3:00 AM)42% (Jul 19, 2:00 PM)29.86 "Hg (Jul 16, 3:00 PM)
Average83 °F82%29.96 "Hg
* Reported Jul 13 6:00 PM — Jul 28 6:00 PM, Choloma, Weather by CustomWeather, © 2014

Note: Actual official high and low records may vary slightly from our data, if they occured in-between our weather recording intervals... More about our weather records

Advertising

Choloma weather history for previous 24 hours

 ConditionsComfort  
Time TempWeatherWind HumidityBarometerVisibility
6:00 PM
Jul 28
81 °FThunderstorms. Broken clouds.12 mph89%29.95 "Hg5 mi
5:00 PM82 °FLight rain. More clouds than sun.14 mph84%29.95 "Hg3 mi
4:00 PM82 °FBroken clouds.7 mph89%29.95 "HgN/A
3:00 PM81 °FScattered showers. More clouds than sun.5 mph94%29.95 "Hg5 mi
2:00 PM81 °FThunderstorms. Broken clouds.7 mph94%29.95 "Hg5 mi
1:00 PM81 °FThunderstorms. Partly sunny.17 mph84%29.98 "Hg2 mi
12:00 PM90 °FBroken clouds.12 mph67%29.98 "HgN/A
11:10 AM88 °FBroken clouds.8 mph70%30.01 "HgN/A
10:00 AM86 °FBroken clouds.5 mph75%30.04 "HgN/A
9:00 AM82 °FPartly sunny.5 mph84%30.01 "HgN/A
8:00 AM79 °FBroken clouds.No wind89%30.01 "HgN/A
7:00 AM75 °FBroken clouds.No wind94%30.04 "HgN/A
6:00 AM75 °FBroken clouds.5 mph94%30.01 "HgN/A
5:00 AM75 °FPartly cloudy.6 mph100%29.98 "HgN/A
4:00 AM73 °FPassing clouds.No wind100%29.98 "HgN/A
3:00 AM73 °FPassing clouds.5 mph100%29.98 "HgN/A
2:00 AM73 °FPassing clouds.No wind100%30.01 "HgN/A
1:00 AM73 °FPassing clouds.No wind100%30.01 "HgN/A
12:00 AM75 °FPartly cloudy.No wind94%30.04 "HgN/A
11:00 PM
Jul 27
75 °FPartly cloudy.No wind100%30.04 "HgN/A
10:00 PM73 °FPartly cloudy.No wind100%30.04 "HgN/A
9:00 PM75 °FPartly cloudy.5 mph94%30.04 "HgN/A
8:00 PM75 °FThunderstorms. Partly cloudy.No wind100%30.01 "HgN/A
7:00 PM77 °FPartly cloudy.5 mph89%29.98 "HgN/A
Weather by CustomWeather, © 2014

See weather overviewHow to use our weather pages